Kapuskasing Airport
CYYU : now visible

Airfield :











YOU CAN JOIN US ON...

 
LOGIN :

Register | Disclaimer

   EN    FR    IT 

 









Legend :    VFR   Marginal VFR   IFR   Intensive IFR   Very Intensive IFR
Visi :
Ceiling :
>= 8 km
>= 3000ft
5 to 8 km
1000 to 3000 ft
1500m to 5 km
500 to 1000 ft
800 to 1500m
200 to 500 ft
< 800m
< 200 ft
Symbols :   Thunderstorms  Fog  Heavy snow  Heavy precipitations  Wind > 20 kt






- Airport Elevation : 743 ft
- IATA code : YYU


CYYU - Kapuskasing

CURRENT METAR :
  • 220100Z 30003KT 15SM SCT022 OVC046 00/M02 A2994 RMK SC4SC4 SLP154

EXPIRED METARs :
  • 220022Z 32005KT 15SM FEW022 SCT031 OVC045 00/M02 A2994 RMK SC2SC2SC4 SLP154
  • 220000Z 33007KT 15SM -SN BKN022 OVC032 01/M02 A2995 RMK SC6SC2 SLP155
  • 212300Z 31003KT 15SM SCT029 OVC034 01/M03 A2993 RMK SC4SC4 SLP150

TAF TAF CYYU
Valid from the 21 at 20:00 until the 22 at 08:00 UTC


211938Z 2120/2208 32008KT P6SM BKN025
TEMPO 2120/2204 BKN015
FM220400 VRB03KT P6SM OVC012
TEMPO 2204/2208 OVC008
PROB30 2204/2208 21/2SM -SN -FZDZ BR OVC006 RMK NXT FCST BY 220200Z
CZYZ FIR / North America



MET'MAP, your aeronautical weather chart ! - Copyright ORBIFLY December 2007 - Disclaimer

ORBIFLY MET'MAP TEAM :

Programming & Development : Alexandra Zaïnal
Concept & original design : Baudouin d'Aumeries
Assistance for programming : Marc-Olivier Méhu
Technical & hardware support : Manuel Goepfert

Contact : metmap@orbifly.com




SOURCES & CREDITS :

   NOAA       Earth
Advisory